When you browse on this site, cookies collect data to enhance your experience and personalize the content and advertising you see.
Visit our Privacy Policy to learn more. By continuing to use the site, you agree to this use of cookies and data.
  • In Hungary
  • List of Countries
  • For 7 days
  • Water Temperature
  • Satellite Maps
  • Weather Map
  • News
  • Weather Widgets
  • user-avatar
    Login

    Hourly Weather Dubai

    Today, 26 March, Tuesday

    Time Temperature Precipitation Wind Pressure Humidity
    00:00 +28°C° 0 mm 7 mps 756 mmHg 58%
    01:00 +28°C° 0 mm 7 mps 756 mmHg 60%
    02:00 +28°C° 0 mm 7 mps 756 mmHg 61%
    03:00 +27°C° 0 mm 6 mps 756 mmHg 62%
    04:00 +27°C° 0 mm 5 mps 756 mmHg 64%
    05:00 +27°C° 0 mm 4 mps 756 mmHg 66%
    06:00 +26°C° 0 mm 4 mps 757 mmHg 68%
    07:00 +26°C° 0 mm 3 mps 757 mmHg 70%
    08:00 +28°C° 0 mm 4 mps 757 mmHg 61%
    09:00 +29°C° 0 mm 4 mps 758 mmHg 52%
    10:00 +30°C° 0 mm 5 mps 758 mmHg 44%
    11:00 +33°C° 0 mm 5 mps 758 mmHg 36%
    12:00 +35°C° 0 mm 6 mps 758 mmHg 28%
    13:00 +38°C° 0 mm 6 mps 758 mmHg 20%
    14:00 +36°C° 0 mm 6 mps 757 mmHg 25%
    15:00 +35°C° 0 mm 7 mps 757 mmHg 30%
    16:00 +35°C° 0 mm 7 mps 757 mmHg 35%
    17:00 +34°C° 0 mm 7 mps 757 mmHg 38%
    18:00 +33°C° 0 mm 8 mps 757 mmHg 41%
    19:00 +32°C° 0 mm 8 mps 757 mmHg 44%
    20:00 +32°C° 0 mm 7 mps 757 mmHg 43%
    21:00 +32°C° 0 mm 6 mps 757 mmHg 42%
    22:00 +32°C° 0 mm 6 mps 757 mmHg 42%
    23:00 +32°C° 0 mm 6 mps 757 mmHg 45%

    Tomorrow, 27 March, Wednesday

    Time Temperature Precipitation Wind Pressure Humidity
    00:00 +30°C° 0 mm 6 mps 757 mmHg 48%
    01:00 +29°C° 0 mm 6 mps 757 mmHg 51%
    02:00 +28°C° 0 mm 6 mps 757 mmHg 55%
    03:00 +28°C° 0 mm 7 mps 758 mmHg 59%
    04:00 +27°C° 0 mm 7 mps 758 mmHg 63%
    05:00 +27°C° 0.1 mm 7 mps 758 mmHg 61%
    06:00 +28°C° 0.1 mm 6 mps 759 mmHg 59%
    07:00 +28°C° 0.1 mm 5 mps 760 mmHg 58%
    08:00 +28°C° 0.1 mm 4 mps 760 mmHg 53%
    09:00 +29°C° 0.1 mm 3 mps 760 mmHg 48%
    10:00 +30°C° 0.1 mm 2 mps 761 mmHg 43%
    11:00 +31°C° 0 mm 3 mps 761 mmHg 40%
    12:00 +33°C° 0 mm 3 mps 760 mmHg 37%
    13:00 +34°C° 0 mm 3 mps 760 mmHg 34%
    14:00 +33°C° 0 mm 4 mps 759 mmHg 37%
    15:00 +33°C° 0 mm 5 mps 759 mmHg 39%
    16:00 +33°C° 0 mm 5 mps 758 mmHg 41%
    17:00 +32°C° 0.1 mm 5 mps 759 mmHg 43%
    18:00 +30°C° 0.1 mm 5 mps 759 mmHg 45%
    19:00 +29°C° 0.1 mm 4 mps 759 mmHg 47%
    20:00 +29°C° 0.2 mm 4 mps 759 mmHg 48%
    21:00 +29°C° 0.2 mm 4 mps 760 mmHg 48%
    22:00 +29°C° 0.2 mm 3 mps 760 mmHg 49%
    23:00 +29°C° 0.1 mm 4 mps 760 mmHg 50%

    Day after tomorrow, 28 March, Thursday

    Time Temperature Precipitation Wind Pressure Humidity
    00:00 +28°C° 0.1 mm 4 mps 759 mmHg 52%
    01:00 +28°C° 0.1 mm 5 mps 759 mmHg 54%
    02:00 +27°C° 0.4 mm 5 mps 759 mmHg 58%
    03:00 +26°C° 0.4 mm 5 mps 759 mmHg 63%
    04:00 +26°C° 0.4 mm 5 mps 758 mmHg 68%
    05:00 +26°C° 0.3 mm 4 mps 759 mmHg 69%
    06:00 +25°C° 0.3 mm 3 mps 759 mmHg 70%
    07:00 +25°C° 0.3 mm 3 mps 759 mmHg 71%
    08:00 +27°C° 0 mm 2 mps 760 mmHg 63%
    09:00 +28°C° 0 mm 2 mps 760 mmHg 56%
    10:00 +29°C° 0 mm 2 mps 760 mmHg 48%
    11:00 +31°C° 0 mm 2 mps 760 mmHg 44%
    12:00 +32°C° 0 mm 2 mps 760 mmHg 39%
    13:00 +34°C° 0 mm 2 mps 759 mmHg 35%
    14:00 +34°C° 0 mm 3 mps 759 mmHg 38%
    15:00 +34°C° 0 mm 4 mps 758 mmHg 41%
    16:00 +33°C° 0 mm 5 mps 758 mmHg 44%
    17:00 +32°C° 0 mm 5 mps 758 mmHg 48%
    18:00 +30°C° 0 mm 4 mps 758 mmHg 52%
    19:00 +29°C° 0 mm 4 mps 758 mmHg 56%
    20:00 +28°C° 0 mm 4 mps 758 mmHg 57%
    21:00 +28°C° 0 mm 4 mps 759 mmHg 59%
    22:00 +27°C° 0 mm 4 mps 759 mmHg 60%
    23:00 +27°C° 0 mm 3 mps 759 mmHg 60%

    29 March, Friday

    Time Temperature Precipitation Wind Pressure Humidity
    00:00 +27°C° 0 mm 2 mps 758 mmHg 60%
    01:00 +26°C° 0 mm 1 mps 758 mmHg 60%
    02:00 +26°C° 0 mm 1 mps 758 mmHg 58%
    03:00 +26°C° 0 mm 2 mps 758 mmHg 56%
    04:00 +25°C° 0 mm 2 mps 758 mmHg 55%
    05:00 +25°C° 0 mm 1 mps 758 mmHg 53%
    06:00 +25°C° 0 mm 1 mps 758 mmHg 52%
    07:00 +25°C° 0 mm 1 mps 759 mmHg 51%
    08:00 +26°C° 0 mm 1 mps 759 mmHg 45%
    09:00 +28°C° 0 mm 1 mps 760 mmHg 39%
    10:00 +29°C° 0 mm 1 mps 760 mmHg 33%
    11:00 +30°C° 0 mm 2 mps 760 mmHg 30%
    12:00 +31°C° 0 mm 3 mps 759 mmHg 26%
    13:00 +33°C° 0 mm 3 mps 759 mmHg 23%
    14:00 +33°C° 0 mm 3 mps 758 mmHg 22%
    15:00 +32°C° 0 mm 4 mps 758 mmHg 22%
    16:00 +32°C° 0 mm 4 mps 757 mmHg 22%
    17:00 +30°C° 0 mm 4 mps 758 mmHg 25%
    18:00 +30°C° 0 mm 4 mps 758 mmHg 28%
    19:00 +29°C° 0 mm 4 mps 758 mmHg 32%
    20:00 +28°C° 0 mm 3 mps 759 mmHg 34%
    21:00 +28°C° 0 mm 2 mps 759 mmHg 36%
    22:00 +27°C° 0 mm 2 mps 759 mmHg 39%
    23:00 +27°C° 0 mm 2 mps 759 mmHg 41%

    30 March, Saturday

    Time Temperature Precipitation Wind Pressure Humidity
    00:00 +26°C° 0 mm 1 mps 759 mmHg 43%
    01:00 +26°C° 0 mm 1 mps 758 mmHg 45%
    02:00 +26°C° 0 mm 1 mps 758 mmHg 47%
    03:00 +25°C° 0 mm 1 mps 758 mmHg 48%
    04:00 +25°C° 0 mm 1 mps 758 mmHg 50%
    05:00 +23°C° 0 mm 0 mps 758 mmHg 49%
    06:00 +23°C° 0 mm 0 mps 758 mmHg 48%
    07:00 +23°C° 0 mm 0 mps 759 mmHg 46%
    08:00 +24°C° 0 mm 0 mps 759 mmHg 40%
    09:00 +27°C° 0 mm 1 mps 759 mmHg 33%
    10:00 +28°C° 0 mm 1 mps 759 mmHg 27%
    11:00 +30°C° 0 mm 1 mps 759 mmHg 23%
    12:00 +31°C° 0 mm 1 mps 758 mmHg 19%
    13:00 +33°C° 0 mm 1 mps 758 mmHg 15%
    14:00 +34°C° 0 mm 2 mps 757 mmHg 16%
    15:00 +34°C° 0 mm 2 mps 757 mmHg 17%
    16:00 +34°C° 0 mm 3 mps 756 mmHg 18%
    17:00 +33°C° 0 mm 3 mps 757 mmHg 21%
    18:00 +31°C° 0 mm 3 mps 757 mmHg 23%
    19:00 +30°C° 0 mm 3 mps 757 mmHg 26%
    20:00 +30°C° 0 mm 3 mps 757 mmHg 24%
    21:00 +30°C° 0 mm 2 mps 757 mmHg 23%
    22:00 +30°C° 0 mm 2 mps 757 mmHg 22%
    23:00 +30°C° 0 mm 2 mps 757 mmHg 21%

    31 March, Sunday

    Time Temperature Precipitation Wind Pressure Humidity
    00:00 +30°C° 0 mm 2 mps 757 mmHg 20%
    01:00 +30°C° 0 mm 2 mps 756 mmHg 20%
    02:00 +30°C° 0 mm 2 mps 756 mmHg 20%
    03:00 +30°C° 0 mm 3 mps 756 mmHg 21%
    04:00 +30°C° 0 mm 4 mps 755 mmHg 21%
    05:00 +30°C° 0 mm 4 mps 756 mmHg 23%
    06:00 +29°C° 0 mm 4 mps 756 mmHg 25%
    07:00 +29°C° 0 mm 4 mps 757 mmHg 27%
    08:00 +32°C° 0 mm 4 mps 757 mmHg 27%
    09:00 +34°C° 0 mm 4 mps 757 mmHg 26%
    10:00 +36°C° 0 mm 4 mps 758 mmHg 25%
    11:00 +37°C° 0 mm 4 mps 757 mmHg 23%
    12:00 +38°C° 0 mm 4 mps 757 mmHg 21%
    13:00 +40°C° 0 mm 3 mps 757 mmHg 19%
    14:00 +39°C° 0 mm 5 mps 756 mmHg 22%
    15:00 +38°C° 0 mm 6 mps 756 mmHg 25%
    16:00 +36°C° 0 mm 7 mps 756 mmHg 28%
    17:00 +36°C° 0 mm 7 mps 756 mmHg 27%
    18:00 +36°C° 0 mm 6 mps 756 mmHg 26%
    19:00 +36°C° 0 mm 5 mps 756 mmHg 26%
    20:00 +35°C° 0 mm 5 mps 756 mmHg 26%
    21:00 +35°C° 0 mm 5 mps 756 mmHg 26%
    22:00 +35°C° 0 mm 5 mps 756 mmHg 26%
    23:00 +35°C° 0 mm 6 mps 756 mmHg 26%
    Show more